GLOBALSTAR M066 [+]

Last updated on Fri Dec 29 2023 00:02:56 GMT+0000 (Coordinated Universal Time)

1 32265U 07048C 23361.94280309 -.00000093 00000+0 61103-4 0 9994 2 32265 51.9650 187.1492 0001952 105.6527 41.6031 12.62279002749029
UTC large
Height (km)
Speed (km/s)
/
Latitude / Longitude
Inclination (degrees)
Orbital Period (minutes)
Azimuth
Elevation
Range (km)
Doppler Factor

Next 0 passes for location: London (51.5072 / 0.1276)

Sorry there are no passes over London.